Find Starlink 31007

NORAD ID: 58889 Int'l Des: 2024-020 Owner: SPXS Country: US Constellation: starlink operational
LEOCIRCULAR

現在のビュー

3D地球を読み込み中...

About Starlink 31007

Starlink 31007 (NORAD 58889) is a starlink constellation satellite (v2 mini) launched Jan 29, 2024 by SPXS of US. It operates in LEO, CIRCULAR orbit with a mass of 730.00 kg.

Starlink 31007について

説明を読み込み中...

次回通過

Passes for default location (London). Set your location on the main map for personalized predictions.

高度履歴

Loading altitude history...

軌道要素

1 58889U 24020P 26171.40373484 -.00002085 00000-0 -50617-4 0 9996
2 58889 53.1580 204.1504 0000971 130.5678 229.5410 15.34386965133814
Epoch: Jun 20, 2026 • Age: 42 hours

現在のステータス

高度 481.2 km
速度 7.62 km/s
衛星直下点 -51.58°S, 162.28°E
打ち上げ日 Jan 29, 2024
運用期間 2.3 years
タイプ internet

技術仕様

分類 Payload
質量 730.00 kg
乾燥質量 700.00 kg
総質量 730.00 kg
長さ 0.30 m
直径 4.10 m
スパン 29.00 m
形状 Box + pan
製造者 SPXS
バスタイプ Starlink V2M
フェーズステータス In Orbit
所有者/国 SPXS/US

Most Searched